TimeEST,TemperatureF,Dew PointF,Humidity,Sea Level PressureIn,VisibilityMPH,Wind Direction,Wind SpeedMPH,Gust SpeedMPH,PrecipitationIn,Events,Conditions,WindDirDegrees,DateUTC
12:53 AM,35.1,30.9,85,29.56,8.0,SW,9.2,-,N/A,,Overcast,220,2013-02-28 05:53:00
1:53 AM,35.1,30.9,85,29.56,8.0,SW,6.9,-,N/A,,Overcast,230,2013-02-28 06:53:00
2:53 AM,35.1,30.9,85,29.56,7.0,SW,5.8,-,N/A,,Overcast,230,2013-02-28 07:53:00
3:45 AM,35.6,30.2,81,29.55,4.0,SW,5.8,-,N/A,,Overcast,230,2013-02-28 08:45:00
3:53 AM,35.1,30.9,85,29.56,3.0,SW,5.8,-,0.00,Snow,Light Snow,230,2013-02-28 08:53:00
4:01 AM,35.6,32.0,87,29.55,2.0,WSW,5.8,-,0.00,Snow,Light Snow,240,2013-02-28 09:01:00
4:24 AM,35.6,32.0,87,29.55,3.0,WNW,6.9,-,0.00,Snow,Light Snow,290,2013-02-28 09:24:00
4:36 AM,35.6,32.0,87,29.55,2.5,WNW,5.8,-,0.00,Snow,Light Snow,300,2013-02-28 09:36:00
4:53 AM,35.1,30.9,85,29.57,3.0,WNW,6.9,-,0.00,Snow,Light Snow,300,2013-02-28 09:53:00
5:07 AM,35.6,30.2,81,29.56,2.0,NW,5.8,-,0.00,Snow,Light Snow,310,2013-02-28 10:07:00
5:30 AM,35.6,30.2,81,29.57,2.0,NW,8.1,-,0.01,Snow,Light Snow,310,2013-02-28 10:30:00
5:45 AM,35.6,30.2,81,29.57,4.0,NW,10.4,-,0.01,Snow,Light Snow,310,2013-02-28 10:45:00
5:53 AM,35.1,30.9,85,29.58,4.0,NW,9.2,-,0.01,Snow,Light Snow,320,2013-02-28 10:53:00
6:20 AM,35.6,30.2,81,29.58,4.0,NW,11.5,-,0.01,Snow,Light Snow,320,2013-02-28 11:20:00
6:53 AM,36.0,30.9,82,29.60,3.0,NW,10.4,-,0.01,Snow,Light Snow,320,2013-02-28 11:53:00
6:57 AM,35.6,30.2,81,29.59,2.5,NW,12.7,-,0.00,Snow,Light Snow,320,2013-02-28 11:57:00
7:23 AM,35.6,30.2,81,29.60,1.8,NW,11.5,-,0.01,Snow,Light Snow,320,2013-02-28 12:23:00
7:29 AM,35.6,30.2,81,29.60,3.0,NNW,12.7,-,0.01,Snow,Light Snow,330,2013-02-28 12:29:00
7:36 AM,35.6,30.2,81,29.60,4.0,NNW,13.8,-,0.01,Snow,Light Snow,330,2013-02-28 12:36:00
7:53 AM,36.0,30.9,82,29.62,3.0,NNW,11.5,-,0.01,Snow,Light Snow,330,2013-02-28 12:53:00
8:40 AM,35.6,30.2,81,29.63,10.0,NW,13.8,-,0.00,,Overcast,320,2013-02-28 13:40:00
8:53 AM,36.0,30.9,82,29.65,9.0,NNW,13.8,-,0.00,,Overcast,330,2013-02-28 13:53:00
9:53 AM,37.9,30.9,76,29.67,10.0,NNW,13.8,-,0.00,,Overcast,330,2013-02-28 14:53:00
10:53 AM,39.0,30.0,70,29.69,10.0,NNW,15.0,23.0,N/A,,Mostly Cloudy,340,2013-02-28 15:53:00
11:53 AM,39.0,30.0,70,29.72,10.0,NNW,13.8,-,0.00,,Overcast,340,2013-02-28 16:53:00
12:04 PM,39.2,30.2,70,29.71,10.0,NNW,18.4,25.3,N/A,,Overcast,340,2013-02-28 17:04:00
12:18 PM,37.4,30.2,75,29.71,5.0,North,17.3,26.5,0.00,Snow,Light Snow,350,2013-02-28 17:18:00
12:31 PM,39.2,30.2,70,29.72,9.0,North,13.8,-,0.00,,Overcast,350,2013-02-28 17:31:00
12:41 PM,37.4,30.2,75,29.72,10.0,North,18.4,25.3,0.00,Rain,Light Rain,350,2013-02-28 17:41:00
12:53 PM,37.9,28.9,70,29.73,10.0,North,16.1,-,0.00,,Overcast,350,2013-02-28 17:53:00
1:53 PM,37.9,28.0,68,29.75,10.0,NNW,23.0,27.6,N/A,,Overcast,340,2013-02-28 18:53:00
2:16 PM,37.4,28.4,70,29.75,10.0,NNW,18.4,23.0,N/A,,Overcast,340,2013-02-28 19:16:00
2:31 PM,37.4,28.4,70,29.75,6.0,North,17.3,-,0.00,,Haze,350,2013-02-28 19:31:00
2:53 PM,37.0,28.9,73,29.78,10.0,NNW,16.1,-,0.00,,Overcast,340,2013-02-28 19:53:00
4:53 PM,37.0,27.0,67,29.83,10.0,NNW,15.0,-,0.00,,Overcast,330,2013-02-28 21:53:00
5:02 PM,37.4,26.6,65,29.82,10.0,North,12.7,-,N/A,,Overcast,350,2013-02-28 22:02:00
5:25 PM,35.6,26.6,70,29.83,10.0,North,13.8,20.7,N/A,,Overcast,350,2013-02-28 22:25:00
5:53 PM,36.0,26.1,67,29.86,10.0,North,13.8,-,N/A,,Overcast,350,2013-02-28 22:53:00
6:53 PM,35.1,27.0,72,29.89,10.0,North,8.1,-,0.00,,Overcast,350,2013-02-28 23:53:00
7:53 PM,34.0,26.1,73,29.92,10.0,North,13.8,-,0.00,,Overcast,350,2013-03-01 00:53:00
8:53 PM,34.0,27.0,75,29.94,10.0,North,8.1,-,N/A,,Overcast,350,2013-03-01 01:53:00
11:53 PM,32.0,24.1,73,29.96,10.0,North,13.8,-,N/A,,Overcast,360,2013-03-01 04:53:00